FLOCK 3P-2

Last updated on Feb. 14, 2018, 4:20 p.m. UTC

1 41966U 17008U   18044.79642306  .00002231  00000-0  95248-4 0  9996
2 41966  97.4658 110.2840 0009823  69.8090 290.4202 15.23910878 55156
UTC
Height (km)
Latitude
Longitude
Inclination
Orbital Period
UTC large
Height (km)
Speed (km/s)
/
Latitude / Longitude
Inclination (degrees)
Orbital Period (minutes)
Azimuth
Elevation
Range (km)
Doppler Factor
iOS Compass Heading
iOS Angle